Wind_Speed
43 42 45 42 42 46 47 50 50 51 46 43 43 43 41 35 32 30 26 22 20 15 14 16 15 14 12 13 10 15 16 18 18 18 20 18 15 26 36 54 64 73 59 89 90 85 83 71 59 56 55 63 64 60
39 37 41 40 39 43 45 48 50 51 50 46 43 40 40 38 34 28 27 26 22 18 16 15 8 6 8 12 10 10 12 19 21 16 12 10 12 17 20 30 36 56 62 68 78 89 81 64 49 53 42 45 55 59
37 35 37 39 36 38 39 44 47 48 50 47 43 43 38 32 30 30 26 27 27 22 17 14 9 1 5 2 1 4 9 8 11 18 5 12 16 19 22 22 35 35 47 55 53 50 86 54 51 58 48 43 38 54
36 35 34 35 31 33 35 40 44 44 48 55 46 37 34 35 32 30 29 26 26 23 21 19 16 13 14 10 7 5 6 8 16 12 12 6 13 12 16 18 30 38 41 48 47 45 57 60 55 56 63 60 56 48
34 36 35 34 29 26 32 35 40 41 47 52 50 41 45 27 27 27 24 18 18 18 17 17 17 15 12 7 6 3 12 12 7 5 10 13 10 8 13 20 17 35 38 44 41 52 44 57 56 64 56 63 63 64
34 34 34 33 32 25 27 33 34 37 44 49 50 44 41 37 28 23 19 20 11 15 15 16 15 17 19 12 12 10 14 10 2 6 6 7 12 1 11 14 15 28 33 35 44 50 41 57 30 64 55 56 57 58
33 32 34 31 30 28 25 29 31 34 39 46 50 45 45 48 26 26 24 19 18 17 16 19 17 17 16 14 9 5 3 2 3 1 7 9 6 11 12 6 16 26 27 35 51 55 57 41 73 32 56 52 57 61
31 33 32 30 29 28 26 24 26 30 33 42 40 37 45 43 38 32 29 29 27 19 20 22 23 17 18 19 19 17 11 12 13 12 13 9 16 18 16 20 21 28 32 30 55 64 70 37 16 31 59 54 52 49
29 32 33 30 28 25 24 22 22 23 29 35 35 36 35 31 39 35 38 40 41 33 32 25 25 23 22 24 23 18 18 14 18 17 15 10 21 24 13 14 15 31 29 30 54 43 42 54 36 36 45 40 39 43
27 31 33 29 28 26 24 21 18 20 24 30 31 30 33 30 29 31 31 38 45 34 23 22 22 24 22 23 22 21 18 18 15 13 8 4 5 13 13 12 30 22 24 40 55 24 19 39 42 45 35 20 27 37
26 29 32 29 28 26 24 20 14 15 20 24 27 28 29 28 35 32 32 35 32 28 25 21 22 23 23 22 22 19 14 14 15 13 12 12 5 5 9 6 21 30 19 38 51 31 18 18 31 27 31 34 39 31
26 28 31 28 28 25 24 18 12 9 14 20 24 23 20 28 31 34 32 32 27 28 22 23 25 25 20 20 22 23 30 33 33 17 16 15 7 5 8 20 16 23 13 23 37 33 34 28 24 24 28 33 30 28
27 29 28 27 27 27 22 16 9 10 8 18 22 18 29 35 36 35 31 28 22 23 26 26 28 32 37 38 38 39 37 38 34 34 28 29 34 28 24 27 24 21 20 18 16 12 10 12 17 24 30 24 20 22
27 28 27 27 29 30 23 13 11 11 11 17 17 22 37 38 37 26 25 25 20 24 28 32 32 30 37 36 39 35 33 35 35 35 31 22 16 25 26 28 24 20 19 15 18 19 15 15 14 15 17 11 19 18
28 29 27 27 29 30 19 15 11 12 14 11 21 32 34 36 35 36 32 24 21 22 27 28 29 28 29 34 33 38 38 38 37 33 31 31 29 24 18 18 20 22 19 16 12 12 11 11 16 14 13 14 15 15
25 27 28 29 28 26 23 19 18 20 12 18 28 27 28 26 29 27 32 30 27 27 22 19 21 25 25 27 29 33 34 35 26 20 21 24 26 27 27 23 19 14 10 9 9 7 9 10 10 10 6 9 9 10
20 21 26 28 29 27 25 23 18 10 12 18 22 20 24 22 19 21 25 28 28 23 23 14 11 20 21 21 24 26 22 17 16 18 21 19 19 20 19 19 19 19 19 17 13 7 4 1 3 6 11 14 13 12
17 18 20 23 27 32 32 25 16 15 20 21 19 21 20 22 20 18 17 17 18 17 17 16 15 14 16 18 19 18 15 13 13 13 13 13 13 13 14 15 15 15 14 13 12 10 9 9 8 5 4 6 8 9
16 15 16 19 22 26 22 22 22 24 23 21 22 19 16 14 16 16 15 14 15 19 19 17 14 10 8 9 8 8 8 9 11 14 15 16 14 12 11 11 12 13 13 12 11 11 11 10 10 12 13 13 12 12
15 15 16 17 20 22 19 19 19 21 22 21 23 23 22 19 19 19 19 18 18 17 15 11 8 7 8 8 9 9 9 9 8 9 11 11 10 11 11 11 11 12 14 16 16 14 15 15 16 17 17 19 21 22
14 15 15 15 18 18 17 17 17 18 18 20 20 18 20 19 18 16 17 17 13 10 10 11 11 9 7 7 8 10 11 11 12 12 12 13 13 14 14 13 13 13 14 17 20 20 19 20 21 21 22 23 23 23
15 15 14 13 14 14 15 15 16 17 16 17 19 17 20 20 17 19 21 20 18 19 18 17 17 15 15 16 17 18 19 18 18 19 21 22 22 22 22 22 22 22 22 23 25 27 28 27 26 27 28 28 27 27
12 14 16 19 15 12 14 18 20 17 16 19 20 21 21 22 22 22 24 24 24 23 20 18 14 15 21 24 25 25 25 26 28 28 27 26 26 28 29 30 31 32 32 33 34 35 36 37 37 38 38 38 36 36
8 13 14 11 13 13 14 14 15 19 21 22 24 24 24 25 25 25 27 28 26 24 23 21 22 21 21 22 25 28 30 30 29 27 28 29 30 31 32 33 32 32 33 34 35 36 38 41 43 45 46 47 47 47
4 6 8 7 8 11 12 14 17 19 21 24 26 28 29 31 31 31 30 29 26 24 22 21 20 19 20 21 22 21 20 18 17 18 20 21 23 25 26 27 27 28 29 30 31 33 35 38 39 40 41 42 44 45
8 4 4 5 7 9 10 12 14 17 19 22 24 25 26 29 32 32 32 30 30 28 25 22 21 22 24 24 24 23 21 19 19 20 21 21 21 22 22 23 23 23 24 25 28 29 31 31 32 33 32 30 31 34
5 4 5 4 5 7 9 11 14 18 22 24 25 28 29 29 30 32 33 33 31 29 28 26 25 24 25 25 24 22 22 20 18 19 21 22 22 22 22 21 22 22 23 25 26 27 28 27 27 26 25 24 22 22
3 5 5 6 7 8 10 13 16 18 20 23 26 29 32 32 32 32 32 32 33 32 30 28 27 26 26 28 28 25 24 24 24 23 21 21 22 23 24 24 24 23 23 25 25 25 25 26 27 26 25 24 24 24
6 6 8 10 11 13 15 17 19 20 22 25 26 28 30 31 32 34 34 33 33 34 32 30 30 29 28 27 28 28 29 29 28 28 27 28 27 27 26 26 26 26 27 27 28 27 26 26 26 26 26 25 25 25
7 9 11 13 15 15 16 18 19 21 21 22 24 25 25 26 29 34 36 35 34 33 30 30 31 30 30 30 30 29 29 28 28 28 28 28 28 29 29 28 28 27 26 26 26 26 26 26 26 24 23 22 22 23
10 11 11 12 14 15 16 15 16 16 18 20 23 26 29 30 31 34 37 36 35 34 33 33 33 34 32 31 31 31 30 30 30 30 30 30 29 29 29 28 27 27 27 26 26 25 24 24 23 23 22 22 22 22
13 13 13 14 15 16 17 15 14 15 18 20 24 28 31 31 32 34 36 37 36 37 36 35 35 36 35 34 34 33 34 34 35 35 35 34 32 31 29 28 27 26 25 25 25 25 25 23 22 21 22 22 22 22
14 15 16 17 18 19 20 20 20 20 21 23 25 29 32 33 32 33 36 38 38 37 36 36 37 38 38 37 37 38 39 39 39 38 36 34 32 30 28 26 25 24 24 24 23 22 21 21 21 21 21 21 20 20
Wind_Direction
345 348 350 357 2 1 1 4 3 2 359 356 358 2 7 4 4 3 355 347 342 335 301 296 283 273 269 270 257 244 244 241 253 255 255 247 255 245 241 237 234 233 238 233 219 220 223 224 224 228 235 233 229 233
347 352 351 359 2 0 0 2 6 5 5 7 4 1 3 5 5 8 10 11 4 353 342 331 333 265 260 262 255 244 235 239 254 257 196 237 230 241 237 221 217 227 231 233 227 222 216 221 216 215 216 227 226 226
344 346 350 354 0 359 2 6 8 9 11 11 10 9 6 8 6 7 12 22 26 26 21 24 47 210 263 307 89 226 233 238 241 195 235 214 229 234 235 224 215 214 220 230 233 216 214 212 208 210 203 206 215 220
348 349 345 350 358 357 360 357 4 9 8 10 12 8 3 6 5 3 4 18 34 44 53 53 63 76 75 83 81 109 193 206 180 200 188 208 235 278 262 223 221 205 207 212 225 209 208 202 203 206 211 213 221 221
345 347 348 348 354 353 351 354 360 2 4 8 13 16 15 5 1 358 359 14 21 36 45 47 59 69 71 119 106 117 107 104 118 210 247 278 281 272 181 204 186 184 197 199 196 203 208 202 209 211 212 215 221 224
347 347 348 347 348 347 343 343 355 355 1 7 5 8 5 9 358 357 359 14 28 39 37 34 37 62 79 82 84 114 107 107 119 289 310 7 5 5 205 205 200 176 181 190 176 188 208 199 219 210 207 203 212 219
347 349 350 350 346 344 342 338 348 353 1 5 2 11 9 10 12 4 6 3 4 18 26 38 36 44 64 105 113 155 173 50 31 10 16 58 33 71 179 172 180 177 175 181 170 169 188 201 205 180 198 200 205 211
346 348 349 347 348 347 340 336 343 355 356 5 2 9 9 23 36 36 29 29 29 33 33 33 36 46 54 71 90 90 105 106 91 69 40 54 45 34 45 41 89 165 166 189 172 183 186 213 199 171 202 207 210 216
341 346 350 346 346 347 342 332 334 352 355 360 2 13 7 20 38 41 41 38 39 38 38 40 51 62 68 65 80 94 111 105 88 80 72 63 60 85 89 84 116 145 164 173 158 174 202 215 213 194 214 222 223 230
337 346 349 346 346 348 344 338 334 343 352 360 358 11 4 28 40 45 27 37 38 47 42 33 46 60 77 92 104 111 92 90 89 87 72 64 26 84 79 53 145 151 159 174 163 165 181 199 207 206 204 199 205 222
337 343 346 349 347 346 342 347 343 342 346 359 1 4 4 46 45 38 36 40 51 50 43 51 65 71 78 88 84 81 85 80 71 64 69 59 89 134 53 89 99 133 164 173 181 201 178 193 203 215 226 234 233 235
349 349 349 353 357 358 354 354 6 348 347 358 5 346 14 55 40 36 38 46 63 63 62 76 82 88 88 86 84 92 96 85 85 77 70 52 58 62 88 95 114 137 144 167 184 199 212 226 218 223 228 229 239 248
359 354 355 0 6 360 359 6 29 44 11 7 3 11 56 48 34 36 53 54 56 50 65 75 80 89 93 94 94 92 85 82 86 77 65 81 84 81 87 100 119 127 130 139 147 159 183 222 227 231 233 243 258 262
6 4 7 11 9 6 4 20 64 64 63 26 11 52 62 49 44 55 58 51 64 79 83 93 96 89 84 87 87 85 85 78 69 69 65 61 72 79 95 120 123 123 120 123 143 155 173 176 182 187 194 211 227 223
14 14 16 17 16 16 28 48 62 87 65 14 51 54 60 57 58 59 58 70 94 91 97 93 92 80 81 80 77 75 77 77 74 67 60 58 68 70 97 87 104 120 103 99 111 123 154 176 195 196 188 211 218 223
24 25 28 22 17 26 38 50 57 69 69 56 56 50 53 58 59 72 67 62 66 79 99 99 94 97 85 80 75 74 77 78 68 66 53 54 56 55 58 62 65 70 80 114 131 130 168 165 163 177 203 223 213 208
25 26 31 36 37 41 44 49 48 71 73 63 62 68 58 59 67 58 60 66 59 49 41 43 87 88 91 85 77 70 73 71 64 52 40 44 39 34 35 37 41 51 55 55 53 49 63 75 198 226 232 229 236 232
26 33 38 40 38 47 46 51 54 54 53 60 63 62 52 44 43 45 51 48 40 36 35 20 20 41 48 56 62 56 49 40 30 29 31 27 26 27 20 13 12 16 18 17 18 24 19 6 358 346 300 278 269 267
17 30 30 34 32 40 41 50 53 60 60 58 63 65 67 63 56 53 53 50 41 24 10 0 346 345 20 41 43 40 31 6 353 351 347 349 358 1 357 354 350 346 339 335 334 331 325 320 312 309 306 299 290 285
4 8 14 22 32 32 20 32 45 53 50 45 44 44 41 38 40 39 35 27 32 13 355 337 333 354 354 346 342 335 337 337 332 325 328 332 338 337 337 333 323 313 307 302 299 292 286 282 281 279 276 275 278 280
6 7 13 20 32 26 20 26 30 35 32 27 18 21 26 22 23 16 5 354 6 354 339 341 345 348 343 332 318 314 316 321 324 324 323 319 319 322 319 314 307 301 297 294 293 290 285 283 280 275 273 274 275 274
10 10 5 11 26 14 6 16 17 12 10 10 14 4 5 6 358 351 346 349 341 331 325 322 324 328 315 311 315 315 311 307 305 306 307 308 308 304 300 296 292 290 286 285 284 285 287 288 286 284 282 279 276 275
1 1 4 9 359 351 355 6 9 9 7 15 11 10 7 2 358 351 352 347 342 336 331 326 322 308 303 303 301 297 294 295 297 299 301 301 300 299 297 294 292 291 289 287 285 283 280 277 274 274 273 272 270 269
351 1 358 1 26 29 22 22 20 22 25 22 17 14 10 8 5 3 359 354 350 346 343 339 332 326 317 305 297 296 297 297 297 295 293 294 295 295 295 297 300 301 300 299 298 296 293 288 283 277 271 268 267 266
356 358 24 60 38 36 41 41 39 32 26 22 19 14 12 9 7 4 3 3 360 356 357 358 359 350 340 330 325 324 323 326 320 307 302 301 299 298 298 299 303 303 302 303 305 306 307 307 304 298 287 275 268 266
82 69 79 27 30 38 35 32 26 20 16 11 7 5 6 5 4 3 1 2 2 355 353 352 354 353 345 338 336 334 329 326 314 310 308 307 304 301 298 299 304 308 310 306 303 304 307 312 313 311 306 296 284 275
10 22 7 5 6 7 7 0 0 6 8 2 359 360 359 357 356 356 357 358 357 352 351 350 348 343 339 337 339 342 340 337 332 326 318 315 313 313 313 310 310 311 308 306 305 306 310 311 311 311 310 307 301 292
30 6 3 358 354 345 344 347 353 353 354 353 355 357 356 355 353 354 353 353 354 354 353 351 350 348 343 341 341 343 339 339 341 341 338 329 320 315 312 309 306 305 302 301 302 305 305 304 304 305 303 302 301 299
18 13 357 345 343 347 351 352 348 349 353 352 351 353 353 349 348 351 356 357 354 352 352 351 353 354 351 342 340 341 339 338 336 334 333 333 332 331 329 325 322 318 313 308 305 303 302 301 300 299 299 300 299 298
11 2 356 353 358 358 354 346 340 340 344 347 347 345 348 352 352 350 353 356 357 354 353 354 357 356 354 348 345 342 338 335 333 331 328 326 324 322 321 321 320 318 315 312 310 307 305 303 301 298 297 298 300 303
11 7 353 352 353 354 355 354 348 344 343 345 346 348 355 357 355 352 352 353 355 355 354 352 352 355 354 349 347 344 342 340 337 335 331 327 324 321 319 318 317 316 315 313 313 311 309 306 305 305 304 304 306 307
353 347 353 355 351 349 351 350 348 349 347 347 347 348 350 354 356 350 352 354 354 354 353 348 346 350 351 348 345 342 338 336 334 331 328 325 323 321 321 320 318 317 316 315 315 313 311 311 311 309 308 308 308 306
348 348 345 343 344 345 347 348 345 344 344 346 346 346 347 349 352 350 351 354 353 353 351 348 344 344 346 344 341 338 335 332 328 325 323 322 323 323 322 323 323 321 320 321 321 319 316 314 312 311 310 309 307 306
Height
5716 5706 5695 5685 5675 5665 5655 5645 5634 5621 5610 5599 5589 5579 5571 5561 5553 5544 5536 5530 5526 5523 5519 5517 5517 5519 5520 5521 5524 5525 5527 5530 5531 5534 5535 5536 5538 5539 5542 5556 5568 5578 5585 5591 5616 5623 5641 5660 5676 5682 5691 5704 5714 5723
5713 5703 5693 5684 5675 5667 5657 5647 5636 5624 5611 5601 5591 5582 5573 5564 5554 5546 5538 5530 5524 5520 5518 5515 5514 5515 5517 5518 5520 5522 5525 5526 5528 5530 5532 5532 5532 5534 5539 5544 5554 5561 5574 5590 5601 5621 5646 5658 5669 5677 5687 5694 5704 5714
5710 5701 5692 5683 5675 5667 5659 5650 5639 5627 5616 5605 5595 5586 5577 5566 5557 5549 5542 5535 5528 5522 5518 5515 5514 5514 5515 5517 5519 5521 5522 5524 5526 5530 5531 5532 5533 5534 5536 5540 5544 5551 5565 5576 5590 5611 5636 5650 5663 5673 5682 5688 5697 5705
5707 5698 5690 5682 5675 5667 5660 5651 5641 5632 5621 5609 5599 5589 5580 5572 5563 5556 5547 5540 5534 5528 5523 5521 5518 5517 5518 5518 5520 5522 5523 5523 5526 5528 5530 5531 5532 5532 5534 5533 5534 5544 5557 5570 5584 5606 5619 5639 5654 5666 5673 5681 5688 5694
5704 5696 5688 5680 5673 5666 5659 5652 5644 5635 5625 5614 5604 5594 5585 5575 5567 5560 5553 5546 5540 5536 5532 5529 5526 5523 5522 5522 5524 5525 5526 5526 5528 5529 5530 5530 5528 5528 5526 5526 5529 5535 5551 5563 5580 5603 5618 5637 5647 5660 5664 5671 5677 5682
5702 5694 5687 5679 5670 5664 5658 5651 5645 5636 5628 5618 5607 5598 5589 5580 5570 5564 5557 5550 5545 5541 5537 5534 5532 5530 5528 5527 5527 5527 5529 5530 5530 5530 5530 5530 5531 5530 5529 5525 5532 5540 5548 5563 5577 5597 5618 5635 5646 5657 5655 5660 5667 5674
5700 5693 5686 5678 5669 5662 5656 5651 5646 5638 5632 5624 5612 5601 5593 5583 5573 5567 5560 5554 5548 5544 5542 5539 5537 5535 5534 5535 5534 5533 5533 5534 5534 5533 5532 5532 5533 5531 5531 5531 5533 5539 5549 5560 5574 5594 5616 5629 5639 5620 5639 5648 5655 5662
5698 5691 5683 5676 5669 5661 5654 5649 5645 5641 5634 5627 5618 5608 5598 5588 5578 5572 5565 5558 5553 5550 5547 5545 5543 5542 5541 5539 5538 5541 5538 5538 5539 5538 5537 5535 5534 5535 5534 5533 5526 5540 5549 5561 5572 5590 5604 5609 5614 5617 5633 5638 5647 5657
5695 5689 5681 5674 5667 5661 5653 5647 5644 5641 5636 5630 5623 5613 5605 5596 5585 5578 5571 5565 5559 5556 5553 5551 5550 5549 5547 5546 5545 5545 5545 5544 5544 5544 5544 5544 5542 5542 5544 5545 5545 5545 5557 5565 5575 5593 5602 5606 5613 5619 5630 5640 5646 5652
5693 5686 5679 5671 5665 5659 5653 5647 5642 5640 5637 5631 5625 5618 5610 5600 5588 5583 5579 5570 5564 5562 5559 5557 5556 5556 5554 5552 5552 5551 5550 5551 5552 5552 5551 5551 5549 5549 5551 5548 5550 5558 5560 5572 5580 5594 5597 5605 5614 5622 5628 5636 5641 5647
5690 5684 5676 5669 5662 5656 5650 5645 5642 5639 5637 5633 5626 5619 5614 5602 5592 5589 5583 5577 5572 5569 5566 5563 5562 5561 5561 5560 5558 5559 5559 5559 5559 5560 5559 5559 5558 5556 5557 5554 5553 5563 5567 5574 5582 5591 5599 5608 5615 5620 5626 5632 5638 5641
5688 5681 5675 5668 5661 5654 5649 5644 5641 5639 5637 5634 5627 5624 5617 5600 5598 5594 5588 5583 5580 5578 5575 5573 5569 5569 5568 5566 5565 5565 5566 5566 5565 5565 5564 5564 5564 5564 5564 5564 5566 5569 5576 5581 5591 5596 5600 5607 5611 5615 5621 5628 5630 5631
5687 5680 5674 5667 5661 5654 5648 5643 5640 5639 5638 5636 5632 5627 5613 5607 5603 5598 5595 5592 5590 5587 5584 5583 5580 5579 5578 5577 5576 5575 5574 5574 5574 5574 5573 5574 5572 5571 5569 5571 5573 5578 5583 5587 5590 5595 5598 5601 5606 5609 5615 5617 5618 5621
5687 5681 5674 5668 5662 5654 5646 5642 5640 5639 5640 5639 5635 5628 5615 5614 5611 5610 5606 5603 5600 5598 5596 5595 5594 5591 5592 5590 5587 5586 5585 5583 5583 5582 5583 5583 5582 5582 5580 5578 5578 5581 5584 5588 5592 5596 5600 5603 5604 5608 5610 5612 5618 5621
5690 5683 5676 5670 5663 5657 5651 5646 5644 5642 5642 5643 5637 5629 5625 5624 5623 5619 5615 5613 5611 5609 5609 5608 5605 5604 5603 5600 5599 5596 5593 5592 5593 5594 5594 5593 5590 5589 5587 5586 5585 5587 5589 5592 5594 5597 5601 5604 5605 5607 5608 5614 5616 5616
5693 5687 5680 5674 5667 5661 5655 5651 5649 5647 5648 5645 5639 5637 5634 5635 5632 5630 5626 5624 5621 5619 5619 5618 5615 5611 5610 5608 5607 5604 5603 5603 5605 5605 5603 5601 5600 5598 5595 5595 5595 5594 5595 5597 5600 5602 5603 5603 5604 5606 5608 5610 5610 5611
5696 5691 5686 5680 5673 5666 5661 5658 5656 5656 5653 5649 5647 5647 5643 5642 5639 5637 5634 5629 5628 5630 5629 5629 5624 5618 5616 5613 5611 5611 5610 5612 5612 5611 5610 5609 5607 5605 5604 5603 5602 5601 5601 5601 5601 5602 5603 5604 5604 5605 5606 5607 5607 5607
5699 5695 5690 5686 5682 5676 5671 5667 5666 5662 5658 5655 5654 5651 5650 5647 5644 5642 5639 5638 5638 5636 5635 5633 5631 5628 5624 5621 5619 5619 5619 5617 5616 5616 5615 5613 5612 5611 5610 5607 5606 5606 5605 5604 5604 5605 5605 5604 5604 5604 5604 5604 5603 5604
5702 5698 5694 5690 5687 5682 5682 5678 5675 5668 5665 5663 5659 5657 5656 5654 5651 5648 5645 5643 5641 5639 5638 5636 5634 5631 5628 5626 5625 5624 5623 5621 5619 5616 5613 5612 5613 5613 5610 5609 5607 5605 5604 5604 5604 5604 5604 5603 5602 5601 5600 5601 5601 5600
5704 5700 5697 5694 5690 5687 5686 5682 5680 5676 5672 5671 5667 5664 5662 5658 5655 5652 5649 5647 5644 5643 5641 5637 5635 5632 5630 5627 5625 5623 5622 5621 5619 5618 5615 5613 5611 5609 5608 5608 5607 5605 5603 5601 5601 5602 5600 5599 5598 5597 5596 5595 5595 5594
5705 5702 5699 5696 5693 5691 5690 5686 5682 5679 5677 5674 5671 5668 5665 5662 5659 5656 5653 5650 5646 5644 5642 5637 5634 5631 5629 5627 5625 5622 5620 5618 5616 5614 5613 5612 5612 5610 5608 5606 5605 5604 5602 5600 5597 5596 5596 5594 5593 5593 5592 5591 5590 5588
5706 5703 5701 5698 5695 5694 5692 5688 5685 5682 5679 5675 5672 5669 5665 5662 5659 5655 5652 5648 5645 5641 5638 5635 5631 5628 5626 5623 5621 5619 5616 5614 5613 5611 5609 5605 5602 5601 5600 5599 5598 5597 5596 5593 5591 5589 5587 5586 5586 5585 5583 5582 5581 5579
5707 5704 5701 5698 5696 5694 5693 5689 5686 5683 5680 5677 5673 5670 5666 5662 5659 5655 5650 5646 5642 5638 5634 5632 5630 5626 5621 5618 5615 5613 5610 5607 5605 5602 5600 5598 5595 5592 5590 5588 5587 5585 5584 5582 5581 5579 5578 5576 5575 5573 5571 5569 5569 5568
5706 5704 5702 5701 5699 5697 5694 5691 5688 5685 5681 5678 5674 5670 5667 5663 5659 5654 5649 5644 5639 5633 5629 5625 5621 5618 5615 5612 5607 5603 5599 5597 5596 5594 5591 5588 5585 5582 5579 5576 5574 5572 5570 5568 5566 5565 5563 5561 5559 5557 5556 5554 5553 5552
5707 5707 5705 5703 5701 5699 5696 5694 5690 5687 5684 5679 5675 5671 5667 5662 5657 5652 5647 5643 5637 5632 5628 5625 5621 5616 5611 5606 5602 5598 5595 5592 5589 5585 5582 5579 5577 5574 5572 5569 5566 5563 5559 5556 5553 5549 5545 5542 5539 5536 5535 5533 5533 5533
5708 5707 5706 5704 5703 5701 5698 5695 5692 5688 5684 5680 5676 5672 5667 5663 5657 5652 5647 5642 5636 5630 5626 5623 5619 5614 5608 5603 5598 5594 5591 5587 5582 5579 5576 5573 5570 5567 5564 5561 5558 5555 5552 5549 5545 5542 5538 5535 5529 5524 5520 5517 5516 5516
5710 5709 5707 5706 5704 5701 5699 5696 5693 5688 5683 5679 5676 5671 5666 5661 5656 5652 5646 5640 5635 5629 5624 5619 5614 5610 5605 5600 5595 5591 5586 5582 5579 5575 5570 5567 5563 5560 5557 5554 5551 5548 5544 5540 5537 5533 5530 5526 5522 5518 5514 5511 5508 5505
5711 5709 5708 5707 5704 5702 5699 5695 5692 5688 5684 5679 5675 5669 5664 5659 5655 5650 5645 5639 5633 5627 5622 5616 5611 5606 5600 5595 5590 5586 5581 5577 5573 5569 5565 5562 5557 5553 5550 5546 5544 5541 5538 5533 5529 5526 5522 5518 5514 5511 5508 5505 5502 5499
5711 5710 5709 5706 5703 5700 5696 5693 5690 5687 5683 5678 5673 5669 5664 5658 5652 5647 5642 5637 5630 5623 5617 5612 5607 5602 5597 5591 5586 5581 5576 5571 5567 5563 5559 5554 5550 5546 5542 5538 5534 5531 5527 5523 5520 5517 5513 5510 5506 5503 5499 5497 5494 5491
5713 5710 5707 5704 5701 5698 5695 5692 5689 5685 5681 5678 5673 5669 5665 5659 5652 5645 5640 5634 5628 5622 5616 5611 5606 5601 5595 5589 5583 5578 5573 5569 5564 5560 5555 5550 5546 5541 5536 5532 5528 5524 5520 5516 5512 5508 5505 5502 5499 5495 5492 5489 5486 5483
5712 5709 5707 5704 5701 5697 5694 5691 5688 5684 5681 5677 5672 5668 5662 5656 5650 5643 5637 5632 5626 5620 5614 5608 5603 5598 5592 5586 5581 5575 5570 5565 5560 5555 5550 5545 5539 5535 5530 5525 5521 5517 5512 5508 5504 5501 5497 5494 5491 5488 5484 5481 5478 5475
5709 5708 5706 5702 5699 5696 5693 5690 5687 5683 5679 5675 5670 5665 5660 5655 5649 5643 5637 5630 5624 5617 5611 5605 5599 5594 5589 5582 5577 5571 5565 5559 5553 5547 5541 5536 5531 5526 5521 5517 5513 5509 5505 5501 5497 5493 5490 5486 5483 5480 5478 5475 5472 5469
5708 5705 5703 5700 5697 5694 5691 5687 5683 5680 5677 5673 5668 5663 5658 5652 5648 5641 5634 5628 5622 5616 5610 5603 5596 5590 5585 5579 5573 5565 5558 5552 5545 5538 5532 5526 5521 5517 5512 5509 5505 5501 5497 5494 5490 5486 5483 5480 5477 5474 5471 5468 5465 5462